Atlantic Companion — SKPE — position and weather

sailwx.info

Track history (hours):
 
Tides and Currents Weather Stations Pressure Air Temp Water Temp Dewpoint Dewpoint Depression Visibility Wind Speed Wind Dir Waves Ship Positions

Atlantic Companion

Last reported at 2014-Oct-24 20:33 UTC. Time now 2014-Oct-24 21:25 UTC.
Position N 51°20' E 004°17'.

Length 292 m; beam 32.3 m; draft 11.6 m.

Type: Cargo ship. MMSI: 265142000.

Date/timePositionNaut miles runAvg speedWind from/ knotsBaromVisibWave heightAir tempDewpointWater temp
2014-Oct-24 20:33N 51°20' E 004°17'4 4.3
2014-Oct-24 19:34N 51°24' E 004°13'9 9.2
2014-Oct-24 18:34N 51°25' E 003°58'10 9.5
2014-Oct-24 17:33N 51°23' E 003°44'8 8.2
2014-Oct-24 16:33N 51°25' E 003°31'1514.9
2014-Oct-24 15:31N 51°24' E 003°06'1515.0
2014-Oct-24 14:33N 51°22' E 002°43'1111.2
2014-Oct-24 13:33N 51°21' E 002°26'1818.4
2014-Oct-24 12:34N 51°11' E 002°00'2019.9
2014-Oct-24 11:33N 50°59' E 001°36'2019.1
2014-Oct-24 10:31N 50°41' E 001°21'1918.6
2014-Oct-24 09:29N 50°30' E 000°56'1819.2
2014-Oct-24 08:33N 50°25' E 000°29'13816.5
2014-Oct-24 00:12N 49°51' W 003°00'1015.7
2014-Oct-23 23:33N 49°52' W 003°16'2315.6
2014-Oct-23 22:04N 49°52' W 003°52'22010.2
2014-Oct-23 00:32N 53°33' W 003°55'1616.0
2014-Oct-22 23:34N 53°33' W 003°28'1312.6
2014-Oct-22 22:34N 53°31' W 003°07'6 5.6
2014-Oct-22 21:33N 53°27' W 003°01'1 0.5
2014-Oct-22 20:31N 53°28' W 003°01'0 0.0
2014-Oct-22 19:31N 53°28' W 003°01'0 0.0
2014-Oct-22 18:31N 53°28' W 003°01'0 0.0
2014-Oct-22 17:31N 53°28' W 003°01'0 0.0
2014-Oct-22 16:31N 53°28' W 003°01'0 0.0
2014-Oct-22 15:31N 53°28' W 003°01'0 0.0
2014-Oct-22 14:25N 53°28' W 003°01'0 0.0
2014-Oct-22 13:31N 53°28' W 003°01'0 0.0
2014-Oct-22 12:31N 53°28' W 003°01'0 0.0
2014-Oct-22 11:31N 53°28' W 003°01'0 0.0
2014-Oct-22 10:31N 53°28' W 003°01'0 0.2
2014-Oct-22 09:33N 53°28' W 003°01'1 0.6
2014-Oct-22 08:33N 53°27' W 003°01'2 1.9
2014-Oct-22 07:33N 53°28' W 003°04'9 8.7
2014-Oct-22 06:33N 53°31' W 003°17'1110.5
2014-Oct-22 05:33N 53°31' W 003°35'1010.4
2014-Oct-22 04:33N 53°33' W 003°52'9 9.5
2014-Oct-22 03:33N 53°35' W 004°07'8 7.8
2014-Oct-22 02:32N 53°38' W 004°20'5 3.2
2014-Oct-22 01:06N 53°40' W 004°12'5 7.0
2014-Oct-22 00:26N 53°38' W 004°05'6 6.6
2014-Oct-21 23:29N 53°36' W 003°55'6 6.2
2014-Oct-21 22:33N 53°35' W 003°45'5 5.0
2014-Oct-21 21:33N 53°34' W 003°37'4 4.0
2014-Oct-21 20:33N 53°34' W 003°30'3 3.4
2014-Oct-21 19:33N 53°34' W 003°25'4 4.1
2014-Oct-21 18:33N 53°32' W 003°19'1312.5
2014-Oct-21 17:33N 53°31' W 003°40'1212.3
2014-Oct-21 16:33N 53°38' W 003°57'2 2.4
2014-Oct-21 15:33N 53°36' W 003°54'1 1.4
2014-Oct-21 14:34N 53°37' W 003°52'7 7.4
2014-Oct-21 13:33N 53°41' W 004°01'3 3.5
2014-Oct-21 12:34N 53°45' W 004°01'4 4.1
2014-Oct-21 11:33N 53°44' W 003°54'3 3.1
2014-Oct-21 10:33N 53°42' W 003°51'3 3.1
2014-Oct-21 09:33N 53°39' W 003°48'3 2.5
2014-Oct-21 08:33N 53°37' W 003°45'5 5.2
2014-Oct-21 07:33N 53°34' W 003°39'8 8.3
2014-Oct-21 06:33N 53°33' W 003°25'3 3.3
2014-Oct-21 05:33N 53°32' W 003°20'7 7.1
2014-Oct-21 04:33N 53°31' W 003°32'8 8.4
2014-Oct-21 03:33N 53°30' W 003°46'6410.5
2014-Oct-20 21:30N 54°16' W 005°02'1616.6
2014-Oct-20 20:33N 54°30' W 005°11'1717.4
2014-Oct-20 19:34N 54°46' W 005°23'2418.5
2014-Oct-20 18:17N 55°06' W 005°47'1419.6
2014-Oct-20 17:33N 55°17' W 006°01'1818.2
2014-Oct-20 16:33N 55°24' W 006°31'1818.4
2014-Oct-20 15:33N 55°29' W 007°02'15015.6
2014-Oct-20 06:00N 55°54' W 011°24'8514.1 230 / 251003.4 12.0 11.2
2014-Oct-20 00:00N 56°06' W 013°54'17814.8 250 / 201004.110.8 2.010.6 11.5
2014-Oct-19 12:00N 56°24' W 019°12'27315.1 290 / 221001.310.8 2.010.5 10.8
2014-Oct-18 18:00N 56°18' W 027°24'17514.6 230 / 33995.0 2.2 3.0 9.2 9.1
2014-Oct-18 06:00N 56°00' W 032°36'8313.8 340 / 35999.6 8.1 7.7
2014-Oct-18 00:00N 55°42' W 035°00'26714.8 340 / 361002.5 5.4 7.0 6.8 7.2
2014-Oct-17 06:00N 54°42' W 042°36'8013.4 350 / 351012.7 2.2 3.0 6.1 6.6
2014-Oct-17 00:00N 54°18' W 044°48'17714.8 360 / 241015.310.8 4.5 6.4 6.5
2014-Oct-16 12:00N 53°18' W 049°30'   020 / 221014.1 2.2 3.5 8.2 7.6
Track history (hours):
 
Tides and Currents Weather Stations Pressure Air Temp Water Temp Dewpoint Dewpoint Depression Visibility Wind Speed Wind Dir Waves Ship Positions

Atlantic Companion

Last reported at 2014-Oct-24 20:33 UTC. Time now 2014-Oct-24 21:25 UTC.
Position N 51°20' E 004°17'.

Length 292 m; beam 32.3 m; draft 11.6 m.

Type: Cargo ship. MMSI: 265142000.

Date/timePositionNaut miles runAvg speedWind from/ knotsBaromVisibWave heightAir tempDewpointWater temp
2014-Oct-24 20:33N 51°20' E 004°17'4 4.3
2014-Oct-24 19:34N 51°24' E 004°13'9 9.2
2014-Oct-24 18:34N 51°25' E 003°58'10 9.5
2014-Oct-24 17:33N 51°23' E 003°44'8 8.2
2014-Oct-24 16:33N 51°25' E 003°31'1514.9
2014-Oct-24 15:31N 51°24' E 003°06'1515.0
2014-Oct-24 14:33N 51°22' E 002°43'1111.2
2014-Oct-24 13:33N 51°21' E 002°26'1818.4
2014-Oct-24 12:34N 51°11' E 002°00'2019.9
2014-Oct-24 11:33N 50°59' E 001°36'2019.1
2014-Oct-24 10:31N 50°41' E 001°21'1918.6
2014-Oct-24 09:29N 50°30' E 000°56'1819.2
2014-Oct-24 08:33N 50°25' E 000°29'13816.5
2014-Oct-24 00:12N 49°51' W 003°00'1015.7
2014-Oct-23 23:33N 49°52' W 003°16'2315.6
2014-Oct-23 22:04N 49°52' W 003°52'22010.2
2014-Oct-23 00:32N 53°33' W 003°55'1616.0
2014-Oct-22 23:34N 53°33' W 003°28'1312.6
2014-Oct-22 22:34N 53°31' W 003°07'6 5.6
2014-Oct-22 21:33N 53°27' W 003°01'1 0.5
2014-Oct-22 20:31N 53°28' W 003°01'0 0.0
2014-Oct-22 19:31N 53°28' W 003°01'0 0.0
2014-Oct-22 18:31N 53°28' W 003°01'0 0.0
2014-Oct-22 17:31N 53°28' W 003°01'0 0.0
2014-Oct-22 16:31N 53°28' W 003°01'0 0.0
2014-Oct-22 15:31N 53°28' W 003°01'0 0.0
2014-Oct-22 14:25N 53°28' W 003°01'0 0.0
2014-Oct-22 13:31N 53°28' W 003°01'0 0.0
2014-Oct-22 12:31N 53°28' W 003°01'0 0.0
2014-Oct-22 11:31N 53°28' W 003°01'0 0.0
2014-Oct-22 10:31N 53°28' W 003°01'0 0.2
2014-Oct-22 09:33N 53°28' W 003°01'1 0.6
2014-Oct-22 08:33N 53°27' W 003°01'2 1.9
2014-Oct-22 07:33N 53°28' W 003°04'9 8.7
2014-Oct-22 06:33N 53°31' W 003°17'1110.5
2014-Oct-22 05:33N 53°31' W 003°35'1010.4
2014-Oct-22 04:33N 53°33' W 003°52'9 9.5
2014-Oct-22 03:33N 53°35' W 004°07'8 7.8
2014-Oct-22 02:32N 53°38' W 004°20'5 3.2
2014-Oct-22 01:06N 53°40' W 004°12'5 7.0
2014-Oct-22 00:26N 53°38' W 004°05'6 6.6
2014-Oct-21 23:29N 53°36' W 003°55'6 6.2
2014-Oct-21 22:33N 53°35' W 003°45'5 5.0
2014-Oct-21 21:33N 53°34' W 003°37'4 4.0
2014-Oct-21 20:33N 53°34' W 003°30'3 3.4
2014-Oct-21 19:33N 53°34' W 003°25'4 4.1
2014-Oct-21 18:33N 53°32' W 003°19'1312.5
2014-Oct-21 17:33N 53°31' W 003°40'1212.3
2014-Oct-21 16:33N 53°38' W 003°57'2 2.4
2014-Oct-21 15:33N 53°36' W 003°54'1 1.4
2014-Oct-21 14:34N 53°37' W 003°52'7 7.4
2014-Oct-21 13:33N 53°41' W 004°01'3 3.5
2014-Oct-21 12:34N 53°45' W 004°01'4 4.1
2014-Oct-21 11:33N 53°44' W 003°54'3 3.1
2014-Oct-21 10:33N 53°42' W 003°51'3 3.1
2014-Oct-21 09:33N 53°39' W 003°48'3 2.5
2014-Oct-21 08:33N 53°37' W 003°45'5 5.2
2014-Oct-21 07:33N 53°34' W 003°39'8 8.3
2014-Oct-21 06:33N 53°33' W 003°25'3 3.3
2014-Oct-21 05:33N 53°32' W 003°20'7 7.1
2014-Oct-21 04:33N 53°31' W 003°32'8 8.4
2014-Oct-21 03:33N 53°30' W 003°46'6410.5
2014-Oct-20 21:30N 54°16' W 005°02'1616.6
2014-Oct-20 20:33N 54°30' W 005°11'1717.4
2014-Oct-20 19:34N 54°46' W 005°23'2418.5
2014-Oct-20 18:17N 55°06' W 005°47'1419.6
2014-Oct-20 17:33N 55°17' W 006°01'1818.2
2014-Oct-20 16:33N 55°24' W 006°31'1818.4
2014-Oct-20 15:33N 55°29' W 007°02'15015.6
2014-Oct-20 06:00N 55°54' W 011°24'8514.1 230 / 251003.4 12.0 11.2
2014-Oct-20 00:00N 56°06' W 013°54'17814.8 250 / 201004.110.8 2.010.6 11.5
2014-Oct-19 12:00N 56°24' W 019°12'27315.1 290 / 221001.310.8 2.010.5 10.8
2014-Oct-18 18:00N 56°18' W 027°24'17514.6 230 / 33995.0 2.2 3.0 9.2 9.1
2014-Oct-18 06:00N 56°00' W 032°36'8313.8 340 / 35999.6 8.1 7.7
2014-Oct-18 00:00N 55°42' W 035°00'26714.8 340 / 361002.5 5.4 7.0 6.8 7.2
2014-Oct-17 06:00N 54°42' W 042°36'8013.4 350 / 351012.7 2.2 3.0 6.1 6.6
2014-Oct-17 00:00N 54°18' W 044°48'17714.8 360 / 241015.310.8 4.5 6.4 6.5
2014-Oct-16 12:00N 53°18' W 049°30'   020 / 221014.1 2.2 3.5 8.2 7.6

Dump ship's entire track history